Location: Cucq
(50.4773°N, 1.6202°E)
Time: 10:00:04
(UTC+00:00)

IDEFIX/ARIANE 42P - Pass Details

Date: 07 August 2020
Orbit: 786 x 802 km, 98.4° (Epoch: 20 September)

Event Time Altitude Azimuth Distance (km) Brightness Sun altitude
Rises 02:09:03 0° 23° (NNE) 3,292 7.4 -17.4°
Reaches altitude 10° 02:11:46 10° 36° (NE) 2,359 6.4 -17.1°
Maximum altitude 02:16:04 26° 92° (E) 1,533 4.4 -16.8°
Drops below altitude 10° 02:20:20 10° 148° (SSE) 2,351 4.8 -16.4°
Enters shadow 02:21:56 - 157° (SSE) 2,881 5.2 -16.2°
